Regional Weather Roundup
Issued by NWS Newport/Morehead, NC

Current Version | Previous Version | Text Only | Print | Product List | Glossary Off
Versions: 1 2 3 4 5 6 7 8 9 10 11 12 13 14 15 16 17 18 19 20 21 22 23 24 25 26 27 28 29 30 31 32 33 34 35 36 37 38 39 40 41 42 43 44 45 46 47 48 49 50
207 ASUS42 KMHX 190312 RWRMHX WEATHER ROUNDUP FOR EASTERN NORTH CAROLINA NATIONAL WEATHER SERVICE NEWPORT/MOREHEAD CITY NC 1000 PM EST WED JAN 18 2017 NOTE: "FAIR" INDICATES FEW OR NO CLOUDS BELOW 12,000 FEET WITH NO SIGNIFICANT WEATHER AND/OR OBSTRUCTIONS TO VISIBILITY NCZ015>017-031-032-045>047-102-103-190400- NORTH COAST CITY SKY/WX TMP DP RH WIND PRES REMARKS EDENTON CLEAR 47 42 85 CALM 30.06S ELIZABETH CITY CLEAR 41 40 96 W7 30.05R KITTY HAWK NOT AVBL MANTEO CLEAR 46 45 98 NW3 30.04R $$ NCZ045>047-081-094-103-104-190400- CENTRAL COAST CITY SKY/WX TMP DP RH WIND PRES REMARKS FRISCO CLEAR 49 45 86 VRB5 30.04R $$ NCZ095-097-098-100-101-190400- SOUTHERN COAST CITY SKY/WX TMP DP RH WIND PRES REMARKS BEAUFORT PTCLDY 46 43 89 CALM 30.06R CEDAR ISLAND NOT AVBL JACKSONVILLE CLEAR 50 46 86 E5 30.05R PINEY ISLAND CLEAR N/A N/A N/A N3 30.05S WILMINGTON CLEAR 53 47 79 E9 30.04R $$ NCZ011>013-027>030-043-044-078>080-089-090>093-098-190400- COASTAL PLAIN CITY SKY/WX TMP DP RH WIND PRES REMARKS AHOSKIE N/A 42 42 97 CALM 30.07R CLINTON CLEAR 50 41 70 CALM 30.05R ELIZABETHTOWN CLEAR 52 42 69 CALM 30.04S GOLDSBORO CLEAR 49 39 69 CALM 30.03S GREENVILLE CLEAR 46 45 93 CALM 30.07S HAVELOCK CLEAR 45 42 89 E3 30.06S KENANSVILLE CLEAR 43 39 87 CALM 30.05R KINSTON CLEAR 46 41 81 CALM 30.06R NEW BERN CLEAR 42 40 92 CALM 30.06S RICHLANDS CLEAR 45 42 89 N6 30.05S ROCKY MOUNT CLEAR 45 40 82 CALM 30.06R WASHINGTON CLEAR 43 43 97 CALM N/A WHITEVILLE PTCLDY 51 43 74 NE3 30.03S $$ AMZ130-135-150-152-154-156-158-170-250-252-270-ANZ085-086-088-633-658-670-190400- MARINE OBSERVATIONS STATION/POSITION TIME TEMP WIND PRES WAVE SWELL AIR SEA DIR/SP/G HT/PER HT/PER (UTC) (F) (DEG/KT/KT) (MB) (FT/S) (FT/S) CHESAPEAKE LIGHT NOT AVBL 64 E VA BEACH 0250 53 56 10/ 25/ 29 1015.4 5/ 6 DUCK 0248 48 45 340/ 10/ 11 1016.2 2 E DUCK 0300 46 N/A 2/ 7 OREGON INLET 0242 47 51 330/ 6/ 8 1016.8 13E OREGON INLT NOT AVBL HATTERAS CG 0248 49 55 340/ 10/ 11 1016.5 DIAMOND BUOY 0250 55 74 10/ 19/ 25 1016.3 6/ 6 2/14 CAPE LOOKOUT 0300 51 10/ 9/ 12 1017.2 BEAUFORT LAB 0248 49 51 20/ 3/ 6 1016.7 30 SE NEW RVR IN NOT AVBL 30 SE NEW RVR IN 0243 62 N/A 6/ 5 27 SE WRIGHTSVLE 0208 60 68 80/ 16/ 23 1016.4 5 SE WRIGHTSVLE NOT AVBL 225 S CAPE HAT 0250 72 72 350/ 21/ 25 1014.1 9/ 8 41 SE CHARLESTON 0250 70 71 270/ 16/ 17 1016.2 4/ 6 2/ 7 $$

USA.gov is the U.S. government's official web portal to all federal, state and local government web resources and services.